sat.trackr.live / text

‹ back to catalog

STARLINK-11549 [DTC]

NORAD 62832 · 2025-019D

PAYLOAD ACTIVE UNKNOWN

§ Identity

Operator
Country
US
Launch date
2025-01-27
Launch site
AFETR
Launch vehicle
Mass (kg)
RCS (m²)

Purposes: comms

External: N2YO · Heavens-Above · Gunter

§ Orbital elements

Epoch: 2026-09-21T05:49:40.851552Z

Period
91.67 min
Inclination
43.0001°
Eccentricity
0.0001053
Mean motion
15.70885775 rev/d
Perigee alt
355.7 km
Apogee alt
357.1 km
Semi-major
6,734.5 km
B*
1.5645e-3
RAAN
207.4803°
Arg perigee
290.0302°
Mean anomaly
70.0452°
Rev number
9,463

§ Raw data

STARLINK-11549 [DTC]1 62832U 25019D   26264.24283393  .00205737  00000+0  15645-2 0  99982 62832  43.0001 207.4803 0001053 290.0302  70.0452 15.70885775 94633

JSON: /api/v1/satellites/62832 · /tle

For live sub-satellite position, see the globe view (requires WebGL).

§ Visibility from observer

Set your observer location to see the next 7 days of passes ≥ 10°. The values pass through the URL so the page stays shareable.

No JS? Fill the form by hand. The geolocation button needs JavaScript.